map of CFB home
Great Circle Mapper logo
CFB - Airport
Location
City:  Cabo Frio, Rio de Janeiro, Brazil
Name:Cabo Frio International Airport
ICAO / IATA:SBCB / CFB

Details
Type:Airport (Aerodrome, Airfield)
Use:International (customs port of entry)
Latitude:2255'18"S (-22.921680)
Longitude:4204'27"W (-42.074268)
Datum:WGS 1984
Elevation:14 ft (4 m)
Variation:22.9W (WMM2015 magnetic declination)
Runways:1
Longest:5577 × 98 ft (1700 × 30 m), paved

Time
Time Zone:UTC-3 (DST-2)
Local Time:

Weather
METAR:SBCB 211500Z 10015KT 9999 FEW015 35/27 Q1010
TAF:SBCB 211500Z 2118/2218 09015KT 9999 SCT025 TN24/2207Z TX33/2216Z
BECMG 2200/2202 05005KT
BECMG 2213/2215 09015KT
RMK PHI

Related Locations
Nearby:
Farthest:IWO: 12192 mi / 19621 km
Iwo Jima [Iwo Jima AB], Iwo Jima Island, JP

Find:

   beyond  
but within

Other Information
Maps:
NOTAMs:
Links:
Sources:

  
flag of Brazil
flag of Rio de Janeiro
  

Sectional Chart

Flight Planning
at skyvector.com

Satellite Image

Google Maps Satellite View

 

Copyright © 2004-2014 Karl L. Swartz. All rights reserved.
The Great Circle Mapper name and logo are trademarks of the Great Circle Mapper.
All other trademarks mentioned herein belong to their respective owners.
Please see credits for attibutions and further copyright information.

  Follow gcmap on Facebook Follow gcmap on Twitter

hCard Microformat

Geo Microformat